time_stamp(utc),avg(mph),gust(mph),direction(deg),12m_air_temp(f),sonic_u(cm/s),sonic_v(cm/s),sonic_w(cm/s),pressure,2m_air_temp(f),pyranometer(W/m^2)
"2017-03-31 00:00:21+00",8.7,10.7,,42.2,39,-361,-6,1021.2,42.3,0
"2017-03-31 00:05:21+00",10.0,12.0,,42.2,61,-422,-11,1021.06,42.3,0
"2017-03-31 00:10:21+00",8.0,10.0,,42.2,55,-323,2,1021.29,42.3,0
"2017-03-31 00:15:21+00",5.6,7.6,,42.3,-30,-227,10,1021.47,42.3,0
"2017-03-31 00:20:21+00",7.0,8.0,,42.3,37,-286,-2,1021.54,42.3,0
"2017-03-31 00:25:21+00",8.9,9.9,,42.3,89,-365,-3,1021.27,42.3,0
"2017-03-31 00:30:21+00",11.8,12.8,,42.3,110,-491,-13,1020.84,42.3,0
"2017-03-31 00:35:21+00",11.0,14.0,,42.3,157,-437,3,1020.78,42.4,0
"2017-03-31 00:40:21+00",8.5,10.5,,42.4,134,-331,0,1020.99,42.4,0
"2017-03-31 00:45:21+00",9.5,10.5,,42.3,87,-393,-16,1020.93,42.4,0
"2017-03-31 00:50:21+00",10.9,11.9,,42.3,132,-447,-8,1020.74,42.4,0
"2017-03-31 00:55:21+00",11.2,12.2,,42.4,201,-435,-4,1020.7,42.4,0
"2017-03-31 01:00:21+00",10.5,12.5,,42.4,220,-391,-5,1020.6,42.5,0
"2017-03-31 01:05:21+00",11.4,13.4,,42.4,144,-470,-13,1020.52,42.4,0
"2017-03-31 01:10:21+00",11.0,12.0,,42.5,222,-421,-2,1020.63,42.5,0
"2017-03-31 01:15:21+00",10.0,12.0,,42.5,158,-396,-1,1020.81,42.5,0
"2017-03-31 01:20:21+00",10.6,11.6,,42.5,240,-386,-11,1020.93,42.5,0
"2017-03-31 01:25:21+00",8.0,10.0,,42.6,107,-318,4,1020.84,42.6,0
"2017-03-31 01:30:21+00",9.3,11.3,,42.6,184,-352,-2,1020.81,42.6,0
"2017-03-31 01:35:21+00",11.0,12.0,,42.6,185,-433,-16,1020.56,42.6,0
"2017-03-31 01:40:21+00",10.8,11.8,,42.5,240,-402,-4,1020.49,42.6,0
"2017-03-31 01:45:21+00",10.4,12.4,,42.6,232,-383,-4,1020.48,42.7,0
"2017-03-31 01:50:21+00",10.6,12.6,,42.6,201,-408,2,1020.68,42.7,0
"2017-03-31 01:55:21+00",10.7,11.7,,42.6,161,-428,-13,1020.69,42.6,0
"2017-03-31 02:00:21+00",11.7,13.7,,42.6,318,-392,-2,1020.67,42.7,0
"2017-03-31 02:05:21+00",10.8,12.8,,42.7,339,-336,-4,1020.32,42.7,0
"2017-03-31 02:10:21+00",13.5,15.5,,42.6,412,-415,3,1020.07,42.7,0
"2017-03-31 02:15:21+00",13.2,14.2,,42.7,353,-457,-15,1020.02,42.7,0
"2017-03-31 02:20:21+00",14.6,15.6,,42.6,475,-426,-1,1019.86,42.7,0
"2017-03-31 02:25:21+00",10.0,11.0,,42.7,268,-335,11,1019.91,42.7,0
"2017-03-31 02:30:21+00",11.9,12.9,,42.7,252,-448,-13,1020.02,42.8,0
"2017-03-31 02:35:21+00",11.6,12.6,,42.7,195,-457,-12,1020.32,42.8,0
"2017-03-31 02:40:21+00",10.7,11.7,,42.7,127,-437,-8,1020.37,42.8,0
"2017-03-31 02:45:21+00",10.6,11.6,,42.8,186,-412,-4,1020.43,42.8,0
"2017-03-31 02:50:21+00",8.4,9.4,,42.9,47,-354,11,1020.63,42.8,0
"2017-03-31 02:55:21+00",11.0,13.0,,42.8,120,-450,-9,1020.59,42.8,0
"2017-03-31 03:00:21+00",8.3,10.3,,42.9,38,-348,14,1020.58,42.8,0
"2017-03-31 03:05:21+00",10.4,12.4,,42.9,109,-438,-7,1020.47,42.9,0
"2017-03-31 03:10:21+00",11.0,13.0,,42.9,179,-439,-2,1020.17,42.9,0
"2017-03-31 03:15:21+00",10.7,11.7,,42.8,157,-428,-9,1020.2,42.8,0
"2017-03-31 03:20:21+00",12.4,14.4,,42.9,94,-526,-21,1020.08,42.9,0
"2017-03-31 03:25:21+00",13.4,14.4,,42.8,103,-554,-8,1020.09,42.8,0
"2017-03-31 03:30:21+00",11.9,12.9,,42.9,148,-480,-1,1019.94,42.9,0
"2017-03-31 03:35:21+00",13.5,14.5,,42.8,191,-547,-19,1019.78,42.8,0
"2017-03-31 03:40:21+00",11.3,13.3,,42.9,83,-478,-11,1020.09,42.9,0
"2017-03-31 03:45:21+00",12.3,13.3,,42.9,120,-508,-17,1020.12,42.9,0
"2017-03-31 03:50:21+00",12.7,13.7,,42.9,152,-526,-19,1020.09,42.9,0
"2017-03-31 03:55:21+00",12.3,14.3,,42.9,172,-498,-10,1019.89,42.8,0
"2017-03-31 04:00:21+00",11.5,12.5,,42.8,114,-476,-4,1019.95,42.9,0
"2017-03-31 04:05:21+00",10.4,12.4,,42.9,130,-434,-3,1019.94,42.9,0
"2017-03-31 04:10:21+00",11.4,13.4,,42.8,224,-437,-7,1020,42.8,0
"2017-03-31 04:15:21+00",11.3,12.3,,42.8,250,-421,18,1019.81,42.8,0
"2017-03-31 04:20:21+00",12.7,14.7,,42.8,367,-411,-2,1019.43,42.8,0
"2017-03-31 04:25:21+00",12.9,14.9,,42.8,394,-405,-5,1019.15,42.8,0
"2017-03-31 04:30:21+00",14.0,16.0,,42.7,460,-410,1,1019.09,42.7,0
"2017-03-31 04:35:21+00",12.5,14.5,,42.8,395,-377,2,1019.31,42.7,0
"2017-03-31 04:40:21+00",12.0,13.0,,42.8,370,-372,-3,1019.54,42.7,0
"2017-03-31 04:45:21+00",12.5,13.5,,42.8,377,-396,-9,1019.57,42.7,0
"2017-03-31 04:50:21+00",13.6,14.6,,42.7,474,-353,-6,1019.34,42.7,0
"2017-03-31 04:55:21+00",11.4,13.4,,42.8,305,-387,1,1019.48,42.7,0
"2017-03-31 05:00:21+00",12.9,14.9,,42.7,425,-366,-3,1019.34,42.7,0
"2017-03-31 05:05:21+00",13.0,14.0,,42.7,434,-364,-2,1019.21,42.7,0
"2017-03-31 05:10:21+00",10.8,14.8,,42.8,249,-397,14,1019.64,42.7,0
"2017-03-31 05:15:21+00",12.4,14.4,,42.8,258,-467,-1,1019.74,42.7,0
"2017-03-31 05:20:21+00",13.8,15.8,,42.8,382,-460,-5,1019.57,42.7,0
"2017-03-31 05:25:21+00",13.1,15.1,,42.8,420,-380,17,1019.28,42.7,0
"2017-03-31 05:30:21+00",13.7,15.7,,42.7,433,-415,-17,1019.08,42.6,0
"2017-03-31 05:35:21+00",14.5,15.5,,42.7,480,-425,1,1018.98,42.6,0
"2017-03-31 05:40:21+00",14.8,17.8,,42.7,475,-446,-9,1018.73,42.4,0
"2017-03-31 05:45:21+00",14.7,16.7,,42.7,482,-434,5,1018.88,42.1,0
"2017-03-31 05:50:21+00",11.1,13.1,,42.7,398,-262,8,1019.06,42.1,0
"2017-03-31 05:55:21+00",12.1,15.1,,42.8,431,-302,2,1019.35,42.1,0
"2017-03-31 06:00:21+00",10.5,12.5,,42.8,415,-201,18,1019.54,42.1,0
"2017-03-31 06:05:21+00",10.7,11.7,,42.8,453,-155,-9,1019.54,42.3,0
"2017-03-31 06:10:21+00",9.7,10.7,,42.8,408,-122,15,1019.64,42.4,0
"2017-03-31 06:15:21+00",10.6,12.6,,42.8,461,-112,6,1019.53,42.4,0
"2017-03-31 06:20:21+00",11.3,12.3,,42.8,498,-53,21,1019.22,42.6,0
"2017-03-31 06:25:21+00",10.4,12.4,,42.9,461,-13,22,1019.37,42.6,0
"2017-03-31 06:30:21+00",15.6,17.6,,42.9,698,-1,27,1018.98,42.6,0
"2017-03-31 06:35:21+00",15.6,17.6,,42.8,699,-27,29,1018.82,42.6,0
"2017-03-31 06:40:21+00",14.8,15.8,,42.7,660,-90,8,1018.97,42.5,0
"2017-03-31 06:45:21+00",12.9,14.9,,42.7,568,-87,24,1019.11,42.5,0
"2017-03-31 06:50:21+00",13.2,16.2,,42.7,576,-121,14,1019.07,42.4,0
"2017-03-31 06:55:21+00",14.2,16.2,,42.5,609,-184,7,1018.81,42.3,0
"2017-03-31 07:00:21+00",15.6,18.6,,42.5,673,-193,10,1018.78,42,0
"2017-03-31 07:05:21+00",13.8,15.8,,42.3,585,-174,13,1018.78,41.9,0
"2017-03-31 07:10:21+00",13.8,15.8,,42.3,569,-224,15,1018.74,41.7,0
"2017-03-31 07:15:21+00",13.0,15.0,,42.2,543,-198,4,1018.55,41.3,0
"2017-03-31 07:20:21+00",12.7,14.7,,42,538,-168,12,1018.63,41.1,0
"2017-03-31 07:25:21+00",13.6,15.6,,42.1,566,-209,-3,1018.7,41.1,0
"2017-03-31 07:30:21+00",14.3,17.3,,42.1,593,-225,-1,1018.76,41.1,0
"2017-03-31 07:35:21+00",16.6,18.6,,42,701,-213,4,1018.73,41,0
"2017-03-31 07:40:21+00",15.3,17.3,,41.7,635,-222,13,1018.66,40.9,0
"2017-03-31 07:45:21+00",15.8,17.8,,41.6,673,-167,8,1018.51,40.7,0
"2017-03-31 07:50:21+00",16.1,18.1,,41.4,689,-151,9,1018.61,40.6,0
"2017-03-31 07:55:21+00",16.7,17.7,,41.2,724,-111,29,1018.28,40.6,0
"2017-03-31 08:00:21+00",16.4,20.4,,41.4,696,-138,25,1018.32,40.6,0
"2017-03-31 08:05:21+00",16.6,18.6,,41.4,725,-105,27,1018.43,40.7,0
"2017-03-31 08:10:21+00",17.9,19.9,,41.4,778,-155,19,1018.31,40.7,0
"2017-03-31 08:15:21+00",17.7,19.7,,41.3,752,-194,19,1018.17,40.6,0
"2017-03-31 08:20:21+00",17.7,19.7,,41.2,746,-176,22,1018.23,40.6,0
"2017-03-31 08:25:21+00",16.4,18.4,,41.2,701,-125,21,1018.12,40.6,0
"2017-03-31 08:30:21+00",16.5,18.5,,41.3,725,-122,34,1018.06,40.7,0
"2017-03-31 08:35:21+00",17.1,19.1,,41.3,745,-87,27,1017.9,40.9,0
"2017-03-31 08:40:21+00",18.1,20.1,,41.4,770,-202,22,1017.61,40.9,0
"2017-03-31 08:45:21+00",17.7,20.7,,41.4,744,-254,8,1017.59,41,0
"2017-03-31 08:50:21+00",18.6,20.6,,41.6,798,-178,21,1017.68,41.1,0
"2017-03-31 08:55:21+00",18.2,20.2,,41.5,778,-168,25,1017.84,41,0
"2017-03-31 09:00:21+00",17.5,20.5,,41.3,769,-24,44,1017.79,41,0
"2017-03-31 09:05:21+00",18.2,20.2,,41.2,791,84,43,1017.63,41,0
"2017-03-31 09:10:21+00",18.8,22.8,,41.2,815,-51,40,1017.47,40.9,0
"2017-03-31 09:15:21+00",18.6,21.6,,41.3,814,-79,38,1017.43,40.9,0
"2017-03-31 09:20:21+00",20.0,22.0,,41.4,878,-69,41,1017.59,40.8,0
"2017-03-31 09:25:21+00",17.8,20.8,,41.3,777,57,40,1017.52,40.9,0
"2017-03-31 09:30:21+00",18.5,21.5,,41.2,804,-47,38,1017.45,40.8,0
"2017-03-31 09:35:21+00",18.8,22.8,,41.2,813,-25,58,1017.44,40.6,0
"2017-03-31 09:40:21+00",18.7,20.7,,41.1,815,-43,35,1017.29,40.6,0
"2017-03-31 09:45:21+00",19.1,22.1,,41.2,830,-8,45,1017.08,40.8,0
"2017-03-31 09:50:21+00",20.0,22.0,,41.2,873,13,57,1017.01,40.9,0
"2017-03-31 09:55:21+00",21.1,25.1,,41.4,926,-40,54,1016.98,40.9,0
"2017-03-31 10:00:21+00",16.4,19.4,,41.4,718,-11,52,1017.16,41,0
"2017-03-31 10:05:21+00",17.5,20.5,,41.5,769,-51,50,1017,41.1,0
"2017-03-31 10:10:21+00",19.5,22.5,,41.6,859,-13,50,1016.98,41.2,0
"2017-03-31 10:15:21+00",16.2,19.2,,41.8,712,29,67,1016.89,41.4,0
"2017-03-31 10:20:21+00",18.9,20.9,,41.9,836,2,58,1016.73,41.5,0
"2017-03-31 10:25:21+00",20.4,23.4,,41.9,904,-38,45,1016.53,41.6,0
"2017-03-31 10:30:21+00",22.1,25.1,,42,992,-19,22,1016.45,41.6,0
"2017-03-31 10:35:21+00",20.6,23.6,,42.1,903,-97,29,1016.41,41.8,0
"2017-03-31 10:40:21+00",19.8,23.8,,42.2,868,-139,16,1016.38,41.9,0
"2017-03-31 10:45:21+00",17.2,20.2,,42.3,739,-160,30,1016.45,42,0
"2017-03-31 10:50:21+00",18.3,20.3,,42.3,765,-189,28,1016.32,42.1,0
"2017-03-31 10:55:21+00",18.0,20.0,,42.3,752,-237,37,1016.28,41.9,0
"2017-03-31 11:00:21+00",24.2,27.2,,42.2,952,-365,39,1016.32,41.8,0
"2017-03-31 11:05:21+00",19.9,23.9,,42.2,831,-332,12,1016.15,41.8,0
"2017-03-31 11:10:21+00",21.5,24.5,,42.1,861,-373,4,1016.08,41.8,0
"2017-03-31 11:15:21+00",21.2,24.2,,42.1,867,-343,11,1016.01,41.9,0
"2017-03-31 11:20:21+00",20.7,23.7,,42.2,848,-348,12,1016.06,41.9,0
"2017-03-31 11:25:21+00",20.9,24.9,,42.3,851,-379,-3,1015.95,42,0
"2017-03-31 11:30:21+00",17.4,20.4,,42.4,706,-312,22,1016.2,42.1,0
"2017-03-31 11:35:21+00",20.2,22.2,,42.3,809,-339,4,1016.14,42.1,0
"2017-03-31 11:40:21+00",14.6,16.6,,42.5,600,-206,31,1016.07,42.2,0
"2017-03-31 11:45:21+00",16.1,18.1,,42.5,660,-257,28,1015.94,42.3,0
"2017-03-31 11:50:21+00",17.8,20.8,,42.5,711,-333,18,1015.82,42.4,0
"2017-03-31 11:55:21+00",17.1,20.1,,42.7,675,-318,30,1015.53,42.5,0
"2017-03-31 12:00:21+00",16.5,19.5,,42.8,657,-339,23,1015.52,42.6,0
"2017-03-31 12:05:21+00",18.6,20.6,,42.9,737,-374,17,1015.37,42.7,0
"2017-03-31 12:10:21+00",17.9,20.9,,43,711,-351,27,1015.36,42.8,0
"2017-03-31 12:15:21+00",16.8,20.8,,43,683,-309,16,1015.07,42.8,0
"2017-03-31 12:20:21+00",18.6,23.6,,43,752,-302,37,1015.02,42.8,0
"2017-03-31 12:25:21+00",20.8,23.8,,43,824,-370,35,1015,42.8,0
"2017-03-31 12:30:21+00",16.6,20.6,,43.1,668,-288,7,1015.02,42.8,0
"2017-03-31 12:35:21+00",16.4,19.4,,43.1,667,-273,9,1014.91,42.8,0
"2017-03-31 12:40:21+00",17.4,21.4,,43.2,716,-301,34,1014.76,42.9,0
"2017-03-31 12:45:21+00",16.3,18.3,,43.2,667,-241,21,1014.79,42.9,0
"2017-03-31 12:50:21+00",16.1,20.1,,43.3,659,-206,39,1014.74,43,0
"2017-03-31 12:55:21+00",17.5,19.5,,43.3,721,-256,27,1014.57,43,0
"2017-03-31 13:00:21+00",17.3,21.3,,43.4,721,-238,21,1014.53,43.1,0
"2017-03-31 13:05:21+00",15.9,19.9,,43.5,655,-218,27,1014.51,43.2,0
"2017-03-31 13:10:21+00",16.2,18.2,,43.6,679,-217,23,1014.4,43.3,0
"2017-03-31 13:15:21+00",15.5,17.5,,43.7,640,-225,35,1014.25,43.4,0
"2017-03-31 13:20:21+00",13.1,15.1,,43.8,546,-161,30,1014.37,43.5,0
"2017-03-31 13:25:21+00",16.1,18.1,,43.9,664,-220,0,1014.27,43.5,0
"2017-03-31 13:30:21+00",14.0,17.0,,44.1,596,-103,25,1014.31,43.6,0
"2017-03-31 13:35:21+00",16.4,18.4,,44.2,703,-157,13,1014.08,43.7,0
"2017-03-31 13:40:21+00",15.4,17.4,,44.2,673,-79,28,1014.07,43.7,0
"2017-03-31 13:45:21+00",13.5,15.5,,44.3,591,-49,29,1014.05,43.8,0
"2017-03-31 13:50:21+00",14.1,16.1,,44.3,615,-41,35,1013.94,43.8,0
"2017-03-31 13:55:21+00",12.1,13.1,,44.3,530,8,46,1013.99,43.9,0
"2017-03-31 14:00:21+00",12.5,13.5,,44.4,549,-7,22,1013.95,43.9,0
"2017-03-31 14:05:21+00",13.2,16.2,,44.5,581,-55,16,1013.88,44,0
"2017-03-31 14:10:21+00",10.9,12.9,,44.5,471,-10,43,1013.89,44.1,0
"2017-03-31 14:15:21+00",12.1,14.1,,44.6,523,-5,38,1013.83,44.2,0
"2017-03-31 14:20:21+00",15.0,17.0,,44.7,641,-87,1,1013.65,44.2,0
"2017-03-31 14:25:21+00",15.4,18.4,,44.8,666,-57,33,1013.56,44.3,0
"2017-03-31 14:30:21+00",13.1,14.1,,44.8,567,-18,30,1013.53,44.4,0
"2017-03-31 14:35:21+00",15.9,18.9,,44.9,693,32,39,1013.29,44.5,0.6
"2017-03-31 14:40:21+00",14.1,17.1,,44.9,618,8,32,1013.21,44.5,0
"2017-03-31 14:45:21+00",13.7,15.7,,44.9,592,64,23,1013.11,44.5,0
"2017-03-31 14:50:21+00",13.5,15.5,,45,585,35,43,1013.01,44.6,0
"2017-03-31 14:55:21+00",13.7,16.7,,45,600,42,45,1012.96,44.6,0
"2017-03-31 15:00:21+00",13.1,15.1,,45.1,573,68,31,1012.81,44.7,0
"2017-03-31 15:05:21+00",11.8,13.8,,45.1,515,81,39,1012.73,44.7,0
"2017-03-31 15:10:21+00",11.9,13.9,,45.2,512,-9,29,1012.6,44.9,0.1
"2017-03-31 15:15:21+00",13.7,16.7,,45.4,587,-77,41,1012.32,45,1.3
"2017-03-31 15:20:21+00",17.5,21.5,,45.5,713,-259,14,1012.02,45.2,4.9
"2017-03-31 15:25:21+00",21.1,24.1,,45.5,846,-391,9,1011.76,45.1,18.3
"2017-03-31 15:30:21+00",22.3,25.3,,45.5,857,-462,14,1011.62,45.2,5
"2017-03-31 15:35:21+00",23.8,26.8,,45.7,907,-499,18,1011.45,45.3,0.1
"2017-03-31 15:40:21+00",23.4,26.4,,45.7,874,-552,-3,1011.41,45.3,0.9
"2017-03-31 15:45:21+00",24.6,28.6,,45.8,934,-528,17,1011.22,45.5,15.8
"2017-03-31 15:50:21+00",24.7,28.7,,46,854,-602,25,1011.2,45.5,19.4
"2017-03-31 15:55:21+00",23.4,28.4,,46.1,817,-524,75,1011.22,45.8,46.6
"2017-03-31 16:00:21+00",27.7,30.7,,46.5,700,-643,152,1011.09,46.1,40.4
"2017-03-31 16:05:21+00",25.4,28.4,,46.3,836,-615,53,1010.94,46.1,36.5
"2017-03-31 16:10:21+00",24.7,29.7,,46.4,821,-590,53,1010.82,46.2,60.6
"2017-03-31 16:15:21+00",26.2,29.2,,46.6,921,-593,75,1010.68,46.4,69.5
"2017-03-31 16:20:21+00",23.8,27.8,,46.6,937,-412,86,1010.6,46.5,65.1
"2017-03-31 16:25:21+00",24.5,28.5,,46.5,944,-507,28,1010.45,46.4,45.4
"2017-03-31 16:30:21+00",23.7,27.7,,46.6,879,-462,72,1010.47,46.5,50.9
"2017-03-31 16:35:21+00",23.0,25.0,,46.6,894,-433,73,1010.29,46.5,40.8
"2017-03-31 16:40:21+00",24.3,27.3,,46.8,907,-491,105,1010.23,46.6,32.8
"2017-03-31 16:45:21+00",22.0,24.0,,46.7,794,-547,22,1010.19,46.6,37.1
"2017-03-31 16:50:21+00",23.6,26.6,,47,868,-560,5,1010.09,46.8,12.1
"2017-03-31 16:55:21+00",20.7,23.7,,46.8,750,-523,10,1010.07,46.7,1.1
"2017-03-31 17:00:21+00",21.5,24.5,,46.9,823,-437,83,1010.1,46.6,0
"2017-03-31 17:05:21+00",20.9,22.9,,47,750,-535,32,1010.01,46.7,0.6
"2017-03-31 17:10:21+00",22.7,26.7,,47.1,847,-519,50,1010.01,46.7,0
"2017-03-31 17:15:21+00",19.4,22.4,,46.9,702,-450,26,1009.94,46.6,0.2
"2017-03-31 17:20:21+00",19.8,23.8,,46.9,760,-453,41,1009.89,46.7,0.3
"2017-03-31 17:25:21+00",19.7,22.7,,46.9,733,-486,25,1009.75,46.7,2.5
"2017-03-31 17:30:21+00",21.2,25.2,,47,778,-426,66,1009.58,46.8,3
"2017-03-31 17:35:21+00",21.4,24.4,,47.2,843,-381,91,1009.4,47,0.7
"2017-03-31 17:40:21+00",21.3,24.3,,47.2,770,-436,53,1009.36,47,0
"2017-03-31 17:45:21+00",19.3,22.3,,47.3,710,-458,25,1009.35,47,0.1
"2017-03-31 17:50:21+00",19.1,23.1,,47.2,716,-447,26,1009.29,47,4.5
"2017-03-31 17:55:21+00",20.3,22.3,,47.4,761,-464,37,1009.17,47.2,0
"2017-03-31 18:00:21+00",19.6,21.6,,47.4,720,-457,23,1009.21,47.2,0.5
"2017-03-31 18:05:21+00",20.3,22.3,,47.4,750,-484,26,1009.01,47.2,7.7
"2017-03-31 18:10:21+00",21.0,24.0,,47.7,815,-395,97,1008.91,47.5,1.9
"2017-03-31 18:15:21+00",20.2,23.2,,47.6,738,-467,15,1008.8,47.4,1.7
"2017-03-31 18:20:21+00",22.1,25.1,,47.7,787,-495,72,1008.7,47.4,0.5
"2017-03-31 18:25:21+00",21.8,23.8,,47.7,788,-462,113,1008.7,47.4,0
"2017-03-31 18:30:21+00",22.1,24.1,,47.9,784,-480,82,1008.59,47.6,2.6
"2017-03-31 18:35:21+00",22.1,24.1,,48,803,-557,10,1008.45,47.6,2.9
"2017-03-31 18:40:21+00",21.7,23.7,,47.9,775,-537,37,1008.4,47.7,8.5
"2017-03-31 18:45:21+00",20.8,23.8,,47.9,718,-480,79,1008.3,47.5,0.8
"2017-03-31 18:50:21+00",19.8,21.8,,47.7,715,-439,66,1008.12,47.5,9.8
"2017-03-31 18:55:21+00",22.2,27.2,,47.6,852,-405,67,1007.94,47.4,18.5
"2017-03-31 19:00:21+00",23.0,25.0,,47.6,888,-452,73,1007.85,47.4,0
"2017-03-31 19:05:21+00",20.7,24.7,,47.8,764,-480,63,1007.69,47.5,15.6
"2017-03-31 19:10:21+00",20.4,23.4,,48.1,756,-471,54,1007.49,47.9,10.3
"2017-03-31 19:15:21+00",21.0,25.0,,48.1,832,-402,93,1007.25,47.9,3.9
"2017-03-31 19:20:21+00",22.5,26.5,,48.2,892,-365,108,1007.22,47.9,18.8
"2017-03-31 19:25:21+00",21.5,23.5,,48.3,785,-489,52,1007.06,48,15.5
"2017-03-31 19:30:21+00",22.7,25.7,,48.3,830,-467,103,1007.02,48.1,10.7
"2017-03-31 19:35:21+00",24.1,26.1,,48.3,915,-470,90,1006.84,48.1,4.8
"2017-03-31 19:40:21+00",23.3,26.3,,48.3,848,-482,96,1006.73,48,0.9
"2017-03-31 19:45:21+00",22.9,24.9,,48.3,750,-520,89,1006.6,48,0
"2017-03-31 19:50:21+00",22.4,26.4,,48,726,-420,159,1006.43,47.8,0
"2017-03-31 19:55:21+00",23.6,26.6,,48,874,-478,52,1006.23,47.7,0.1
"2017-03-31 20:00:21+00",21.0,24.0,,47.8,846,-380,44,1006.09,47.6,0.5
"2017-03-31 20:05:21+00",20.0,23.0,,47.7,736,-454,19,1006.08,47.6,0
"2017-03-31 20:10:21+00",18.0,21.0,,47.6,717,-362,6,1005.99,47.5,0
"2017-03-31 20:15:21+00",18.5,20.5,,47.9,668,-453,0,1005.98,47.7,0
"2017-03-31 20:20:21+00",19.7,23.7,,47.9,697,-447,35,1005.84,47.7,2
"2017-03-31 20:25:21+00",17.9,20.9,,47.9,706,-376,17,1005.62,47.8,0.2
"2017-03-31 20:30:21+00",19.5,22.5,,48.1,745,-422,12,1005.5,47.9,0.5
"2017-03-31 20:35:21+00",20.0,23.0,,49.2,709,-488,69,1005.29,48.7,0.6
"2017-03-31 20:40:21+00",20.3,23.3,,50,673,-581,49,1005.06,49.6,0
"2017-03-31 20:45:21+00",21.9,24.9,,49.1,797,-516,46,1005.03,49,0
"2017-03-31 20:50:21+00",18.7,22.7,,49.4,622,-526,25,1005.17,49,0
"2017-03-31 20:55:21+00",16.9,20.9,,48.9,519,-518,13,1004.97,48.7,0
"2017-03-31 21:00:21+00",16.9,19.9,,48.7,530,-524,7,1005.11,48.4,0
"2017-03-31 21:05:21+00",17.8,20.8,,48.8,546,-549,21,1004.85,48.5,0
"2017-03-31 21:10:21+00",16.5,18.5,,48.8,486,-538,9,1004.86,48.5,0
"2017-03-31 21:15:21+00",19.5,21.5,,48.9,657,-557,6,1004.61,48.6,0
"2017-03-31 21:20:21+00",20.2,23.2,,48.9,683,-537,40,1004.51,48.6,0
"2017-03-31 21:25:21+00",20.1,22.1,,49.1,654,-578,17,1004.34,48.7,0
"2017-03-31 21:30:21+00",18.6,20.6,,48.8,624,-525,3,1004.32,48.6,0
"2017-03-31 21:35:21+00",19.1,23.1,,49,607,-556,35,1004.19,48.6,0
"2017-03-31 21:40:21+00",19.7,22.7,,48.8,686,-503,55,1004.11,48.6,0
"2017-03-31 21:45:21+00",18.5,21.5,,48.6,623,-502,20,1003.98,48.4,0
"2017-03-31 21:50:21+00",17.7,19.7,,49.1,631,-473,-12,1003.78,48.7,0
"2017-03-31 21:55:21+00",19.9,23.9,,49.5,714,-497,46,1003.65,49,0
"2017-03-31 22:00:21+00",19.5,22.5,,49.7,610,-578,35,1003.71,49.3,0
"2017-03-31 22:05:21+00",17.9,20.9,,49.6,573,-581,6,1003.56,49.2,0
"2017-03-31 22:10:21+00",17.8,20.8,,49.3,558,-538,21,1003.45,49.1,0
"2017-03-31 22:15:21+00",20.1,22.1,,49.7,588,-657,-3,1003.32,49.3,0
"2017-03-31 22:20:21+00",17.9,19.9,,49.6,505,-606,-12,1003.25,49.2,0
"2017-03-31 22:25:21+00",17.8,20.8,,49.5,461,-637,-12,1003.21,49.2,0
"2017-03-31 22:30:21+00",15.7,17.7,,49.5,300,-622,7,1002.97,49.1,0
"2017-03-31 22:35:21+00",19.9,25.9,,50,455,-741,0,1002.71,49.5,0
"2017-03-31 22:40:21+00",26.7,31.7,,50.4,-67,-723,578,1002.22,50,0
"2017-03-31 22:45:21+00",26.8,28.8,,49.9,-52,-814,477,1001.94,49.6,0
"2017-03-31 22:50:21+00",25.7,28.7,,49.4,409,-839,180,1001.65,49.1,0
"2017-03-31 22:55:21+00",26.8,31.8,,49.5,547,-756,253,1001.43,49.2,0
"2017-03-31 23:00:21+00",26.3,30.3,,50.2,219,-750,410,1001.3,49.6,0
"2017-03-31 23:05:21+00",29.4,34.4,,51,-329,-915,649,1001.04,50.5,0
"2017-03-31 23:10:21+00",23.6,27.6,,51.4,923,-827,-140,1001.39,50.9,0
"2017-03-31 23:15:21+00",30.2,35.2,,50.9,447,-1066,161,1001.35,50.4,0
"2017-03-31 23:20:21+00",25.8,30.8,,50.9,796,-948,-159,1001.84,50.4,0
"2017-03-31 23:25:21+00",16.0,21.0,,50.7,48,-670,-7,1002.64,50.3,0
"2017-03-31 23:30:21+00",16.3,20.3,,50.4,95,-687,-10,1002.82,50.1,0
"2017-03-31 23:35:21+00",16.5,19.5,,50.1,198,-685,-14,1002.69,49.7,0
"2017-03-31 23:40:21+00",15.0,18.0,,49.6,200,-615,-16,1002.69,49.2,0
"2017-03-31 23:45:21+00",12.4,14.4,,49.3,103,-512,-1,1002.81,49,0
"2017-03-31 23:50:21+00",11.6,13.6,,48.9,90,-479,-1,1002.82,48.7,0
"2017-03-31 23:55:21+00",9.8,11.8,,48.8,-38,-405,0,1002.94,48.6,0
